| time (UTC) | temp F | wind direction | speed knots | gust knots | rain 1hr in | rain 24hr in | rain mn in | humidity % | barometer mb |
| 20260505212509 | 62 | 115 | 0.9 | 5.2 | 0.00 | 0.50 | 0.50 | 85 | 1015.6 |
| 20260505212006 | 62 | 116 | 1.7 | 9.6 | 0.00 | 0.50 | 0.50 | 85 | 1015.7 |
| 20260505211514 | 62 | 102 | 1.7 | 9.6 | 0.00 | 0.50 | 0.50 | 85 | 1015.7 |
| 20260505211008 | 62 | 101 | 1.7 | 6.1 | 0.00 | 0.50 | 0.50 | 85 | 1015.7 |
| 20260505210508 | 62 | 122 | 1.7 | 6.1 | 0.00 | 0.50 | 0.50 | 85 | 1015.8 |
| 20260505210016 | 62 | 95 | 1.7 | 7.0 | 0.00 | 0.50 | 0.50 | 85 | 1015.8 |
| 20260505205507 | 62 | 127 | 1.7 | 7.0 | 0.00 | 0.50 | 0.50 | 85 | 1015.7 |
| 20260505205007 | 61 | 150 | 0.9 | 4.3 | 0.00 | 0.50 | 0.50 | 85 | 1015.7 |
| 20260505204524 | 61 | 53 | 1.7 | 4.3 | 0.00 | 0.50 | 0.50 | 85 | 1015.6 |
| 20260505204009 | 61 | 93 | 0.9 | 4.3 | 0.00 | 0.50 | 0.50 | 85 | 1015.6 |
| 20260505203513 | 61 | 82 | 1.7 | 6.1 | 0.00 | 0.50 | 0.50 | 84 | 1015.6 |
| 20260505203016 | 61 | 110 | 0.9 | 6.1 | 0.00 | 0.50 | 0.50 | 84 | 1015.6 |
| 20260505202504 | 61 | 124 | 1.7 | 4.3 | 0.00 | 0.50 | 0.50 | 84 | 1015.7 |
| 20260505202008 | 61 | 104 | 1.7 | 5.2 | 0.00 | 0.50 | 0.50 | 84 | 1015.7 |
| 20260505201511 | 61 | 150 | 1.7 | 5.2 | 0.00 | 0.50 | 0.50 | 84 | 1015.8 |
| 20260505201003 | 61 | 179 | 1.7 | 4.3 | 0.00 | 0.50 | 0.50 | 83 | 1015.7 |
| 20260505200508 | 61 | 33 | 2.6 | 7.0 | 0.00 | 0.50 | 0.50 | 83 | 1015.8 |
| 20260505200015 | 62 | 106 | 1.7 | 7.0 | 0.00 | 0.50 | 0.50 | 83 | 1015.8 |
| 20260505195509 | 62 | 67 | 2.6 | 5.2 | 0.00 | 0.50 | 0.50 | 84 | 1015.8 |
| 20260505195008 | 62 | 117 | 1.7 | 4.3 | 0.00 | 0.50 | 0.50 | 84 | 1015.9 |
| 20260505194522 | 62 | 126 | 1.7 | 4.3 | 0.00 | 0.50 | 0.50 | 84 | 1015.9 |
| 20260505194010 | 62 | 188 | 1.7 | 3.5 | 0.00 | 0.50 | 0.50 | 84 | 1015.8 |
| 20260505193509 | 62 | 86 | 1.7 | 3.5 | 0.00 | 0.50 | 0.50 | 84 | 1015.7 |
| 20260505193024 | 62 | 155 | 0.9 | 6.1 | 0.00 | 0.50 | 0.50 | 84 | 1015.7 |
| 20260505192508 | 62 | 86 | 1.7 | 7.0 | 0.00 | 0.50 | 0.50 | 84 | 1015.6 |
| 20260505192009 | 62 | 122 | 1.7 | 7.0 | 0.00 | 0.50 | 0.50 | 84 | 1015.6 |
| 20260505191506 | 61 | 114 | 0.9 | 7.0 | 0.00 | 0.50 | 0.50 | 84 | 1015.5 |
| 20260505191004 | 61 | 141 | 0.9 | 5.2 | 0.00 | 0.50 | 0.50 | 84 | 1015.4 |
| 20260505190504 | 61 | 138 | 1.7 | 5.2 | 0.00 | 0.50 | 0.50 | 85 | 1015.6 |
| 20260505190014 | 62 | 96 | 1.7 | 5.2 | 0.00 | 0.51 | 0.50 | 85 | 1015.5 |
| 20260505185506 | 62 | 89 | 1.7 | 7.0 | 0.00 | 0.51 | 0.50 | 85 | 1015.4 |
| 20260505185015 | 62 | 148 | 0.9 | 7.0 | 0.00 | 0.51 | 0.50 | 85 | 1015.4 |
| 20260505184524 | 62 | 114 | 1.7 | 5.2 | 0.00 | 0.51 | 0.50 | 85 | 1015.3 |
| 20260505184008 | 62 | 123 | 1.7 | 7.0 | 0.00 | 0.51 | 0.50 | 85 | 1015.3 |
| 20260505183508 | 62 | 114 | 1.7 | 9.6 | 0.00 | 0.51 | 0.50 | 85 | 1015.4 |
| 20260505183022 | 61 | 130 | 2.6 | 9.6 | 0.00 | 0.51 | 0.50 | 85 | 1015.5 |
| 20260505182510 | 62 | 188 | 0.9 | 4.3 | 0.00 | 0.51 | 0.50 | 85 | 1015.4 |
| 20260505182012 | 62 | 91 | 1.7 | 5.2 | 0.00 | 0.51 | 0.50 | 86 | 1015.3 |
| 20260505181527 | 62 | 85 | 1.7 | 7.0 | 0.00 | 0.51 | 0.50 | 86 | 1015.3 |
| 20260505181010 | 62 | 153 | 1.7 | 7.0 | 0.00 | 0.51 | 0.50 | 86 | 1015.3 |
| 20260505180509 | 62 | 120 | 2.6 | 5.2 | 0.00 | 0.51 | 0.50 | 86 | 1015.3 |
| 20260505180008 | 62 | 129 | 1.7 | 7.8 | 0.00 | 0.51 | 0.50 | 86 | 1015.4 |
| 20260505175506 | 62 | 82 | 2.6 | 7.8 | 0.00 | 0.51 | 0.50 | 86 | 1015.2 |
| 20260505175005 | 62 | 162 | 2.6 | 7.0 | 0.00 | 0.51 | 0.50 | 86 | 1015.1 |
| 20260505174512 | 62 | 156 | 2.6 | 7.0 | 0.00 | 0.51 | 0.50 | 86 | 1015.2 |
| 20260505174007 | 62 | 114 | 1.7 | 5.2 | 0.00 | 0.51 | 0.50 | 86 | 1015.2 |
| 20260505173505 | 62 | 96 | 1.7 | 6.1 | 0.00 | 0.51 | 0.50 | 86 | 1015.3 |
| 20260505173018 | 62 | 110 | 2.6 | 6.1 | 0.00 | 0.51 | 0.50 | 85 | 1015.2 |
| 20260505172509 | 62 | 160 | 2.6 | 6.1 | 0.00 | 0.51 | 0.50 | 86 | 1015.1 |
| 20260505172010 | 62 | 87 | 1.7 | 6.1 | 0.00 | 0.51 | 0.50 | 86 | 1015.2 |
| 20260505171521 | 62 | 103 | 0.9 | 6.1 | 0.00 | 0.51 | 0.50 | 86 | 1015.2 |
| 20260505171009 | 62 | 101 | 1.7 | 6.1 | 0.00 | 0.51 | 0.50 | 86 | 1015.1 |
| 20260505170508 | 62 | 76 | 1.7 | 5.2 | 0.00 | 0.51 | 0.50 | 86 | 1015.0 |
| 20260505170026 | 62 | 90 | 1.7 | 5.2 | 0.00 | 0.51 | 0.50 | 86 | 1015.0 |
| 20260505165510 | 62 | 80 | 1.7 | 5.2 | 0.00 | 0.51 | 0.50 | 86 | 1015.1 |
| 20260505165012 | 62 | 239 | 1.7 | 7.0 | 0.00 | 0.51 | 0.50 | 86 | 1015.0 |
| 20260505164506 | 62 | 124 | 0.9 | 7.0 | 0.00 | 0.51 | 0.50 | 86 | 1015.2 |
| 20260505164007 | 62 | 79 | 2.6 | 7.8 | 0.00 | 0.51 | 0.50 | 86 | 1015.3 |
| 20260505163506 | 62 | 119 | 1.7 | 7.8 | 0.00 | 0.51 | 0.50 | 86 | 1015.3 |
| 20260505163012 | 62 | 94 | 1.7 | 6.1 | 0.00 | 0.51 | 0.50 | 86 | 1015.4 |
| 20260505162506 | 62 | 82 | 2.6 | 6.1 | 0.00 | 0.51 | 0.50 | 86 | 1015.4 |
| 20260505162007 | 62 | 108 | 1.7 | 6.1 | 0.00 | 0.51 | 0.50 | 86 | 1015.4 |
| 20260505161518 | 62 | 207 | 2.6 | 8.7 | 0.00 | 0.51 | 0.50 | 87 | 1015.3 |
| 20260505161007 | 62 | 84 | 1.7 | 8.7 | 0.00 | 0.51 | 0.50 | 87 | 1015.4 |
| 20260505160509 | 62 | 124 | 1.7 | 7.0 | 0.00 | 0.51 | 0.50 | 87 | 1015.5 |
| 20260505153011 | 62 | 121 | 2.6 | 7.0 | 0.06 | 0.51 | 0.50 | 88 | 1015.6 |
| 20260505152506 | 62 | 116 | 1.7 | 10.4 | 0.06 | 0.51 | 0.50 | 89 | 1015.7 |
| 20260505152013 | 62 | 132 | 3.5 | 10.4 | 0.06 | 0.51 | 0.50 | 88 | 1015.6 |
| 20260505151517 | 62 | 133 | 3.5 | 8.7 | 0.06 | 0.51 | 0.50 | 88 | 1015.6 |
| 20260505151007 | 62 | 127 | 1.7 | 8.7 | 0.05 | 0.50 | 0.49 | 88 | 1015.7 |
| 20260505150507 | 62 | 128 | 3.5 | 8.7 | 0.05 | 0.50 | 0.49 | 88 | 1015.6 |
| 20260505140507 | 67 | 185 | 2.6 | 9.6 | 0.00 | 0.44 | 0.44 | 77 | 1015.4 |
| 20260505125007 | 67 | 171 | 3.5 | 11.3 | 0.00 | 0.44 | 0.44 | 78 | 1015.6 |
| 20260505124519 | 67 | 207 | 3.5 | 11.3 | 0.00 | 0.44 | 0.44 | 78 | 1015.7 |
| 20260505124009 | 66 | 73 | 4.3 | 11.3 | 0.00 | 0.44 | 0.44 | 78 | 1015.7 |
| 20260505123507 | 66 | 98 | 2.6 | 9.6 | 0.00 | 0.44 | 0.44 | 79 | 1015.7 |
| 20260505123023 | 66 | 25 | 3.5 | 8.7 | 0.00 | 0.44 | 0.44 | 79 | 1015.9 |
| 20260505122510 | 66 | 137 | 3.5 | 8.7 | 0.00 | 0.44 | 0.44 | 81 | 1015.9 |
| 20260505122009 | 65 | 94 | 3.5 | 10.4 | 0.00 | 0.44 | 0.44 | 81 | 1015.9 |
| 20260505121505 | 65 | 35 | 4.3 | 10.4 | 0.00 | 0.44 | 0.44 | 82 | 1016.0 |
| 20260505121003 | 65 | 136 | 2.6 | 10.4 | 0.00 | 0.44 | 0.44 | 82 | 1016.0 |
| 20260505120506 | 65 | 152 | 5.2 | 10.4 | 0.00 | 0.44 | 0.44 | 81 | 1016.0 |
| 20260505120019 | 65 | 204 | 3.5 | 9.6 | 0.00 | 0.44 | 0.44 | 81 | 1016.0 |
| 20260505115507 | 65 | 124 | 3.5 | 11.3 | 0.00 | 0.44 | 0.44 | 80 | 1016.0 |
| 20260505115012 | 65 | 131 | 4.3 | 11.3 | 0.00 | 0.44 | 0.44 | 79 | 1016.0 |
| 20260505114514 | 65 | 111 | 4.3 | 10.4 | 0.00 | 0.44 | 0.44 | 80 | 1016.2 |
| 20260505114007 | 65 | 121 | 2.6 | 10.4 | 0.00 | 0.44 | 0.44 | 80 | 1016.3 |
| 20260505113508 | 65 | 90 | 4.3 | 11.3 | 0.00 | 0.44 | 0.44 | 80 | 1016.3 |
| 20260505113022 | 65 | 145 | 4.3 | 11.3 | 0.00 | 0.44 | 0.44 | 80 | 1016.4 |
| 20260505112508 | 65 | 86 | 4.3 | 11.3 | 0.00 | 0.44 | 0.44 | 80 | 1016.3 |
| 20260505112008 | 65 | 161 | 1.7 | 9.6 | 0.00 | 0.44 | 0.44 | 81 | 1016.3 |
| 20260505111530 | 65 | 124 | 2.6 | 8.7 | 0.00 | 0.44 | 0.44 | 80 | 1016.2 |
| 20260505111009 | 65 | 23 | 3.5 | 8.7 | 0.00 | 0.44 | 0.44 | 80 | 1016.3 |
| 20260505110510 | 65 | 188 | 2.6 | 9.6 | 0.00 | 0.44 | 0.44 | 80 | 1016.3 |
| 20260505102007 | 65 | 100 | 3.5 | 13.9 | 0.00 | 0.44 | 0.44 | 79 | 1016.3 |
| 20260505101526 | 65 | 205 | 4.3 | 10.4 | 0.00 | 0.44 | 0.44 | 77 | 1016.3 |
| 20260505101014 | 65 | 105 | 3.5 | 9.6 | 0.00 | 0.44 | 0.44 | 78 | 1016.2 |
| 20260505100513 | 65 | 223 | 3.5 | 11.3 | 0.00 | 0.44 | 0.44 | 78 | 1016.3 |
| 20260505100030 | 65 | 7 | 4.3 | 11.3 | 0.00 | 0.44 | 0.44 | 77 | 1016.2 |
| 20260505095509 | 66 | 82 | 3.5 | 11.3 | 0.00 | 0.44 | 0.44 | 77 | 1016.4 |
| 20260505095009 | 66 | 84 | 3.5 | 12.2 | 0.00 | 0.44 | 0.44 | 77 | 1016.3 |
| 20260505094507 | 66 | 156 | 3.5 | 12.2 | 0.00 | 0.44 | 0.44 | 78 | 1016.3 |
| 20260505094007 | 66 | 159 | 3.5 | 13.0 | 0.00 | 0.44 | 0.44 | 78 | 1016.3 |
| 20260505093508 | 65 | 107 | 5.2 | 13.0 | 0.00 | 0.44 | 0.44 | 79 | 1016.2 |
| 20260505093016 | 65 | 152 | 3.5 | 13.0 | 0.00 | 0.44 | 0.44 | 80 | 1016.2 |
| 20260505092507 | 64 | 174 | 2.6 | 13.0 | 0.00 | 0.44 | 0.44 | 80 | 1016.2 |
| 20260505092008 | 64 | 95 | 3.5 | 11.3 | 0.00 | 0.44 | 0.44 | 80 | 1016.1 |
| 20260505091520 | 64 | 137 | 4.3 | 9.6 | 0.00 | 0.44 | 0.44 | 79 | 1016.1 |
| 20260505091010 | 65 | 130 | 4.3 | 10.4 | 0.00 | 0.44 | 0.44 | 78 | 1016.0 |
| 20260505090508 | 65 | 66 | 3.5 | 11.3 | 0.00 | 0.44 | 0.44 | 80 | 1016.1 |
| 20260505090022 | 64 | 155 | 4.3 | 11.3 | 0.00 | 0.44 | 0.44 | 81 | 1015.9 |
| 20260505085510 | 63 | 135 | 3.5 | 10.4 | 0.00 | 0.44 | 0.44 | 81 | 1016.0 |
| 20260505085009 | 63 | 68 | 3.5 | 11.3 | 0.00 | 0.44 | 0.44 | 79 | 1016.0 |
| 20260505084541 | 64 | 127 | 2.6 | 12.2 | 0.00 | 0.44 | 0.44 | 81 | 1015.9 |
| 20260505084012 | 64 | 113 | 2.6 | 12.2 | 0.00 | 0.44 | 0.44 | 81 | 1016.0 |
| 20260505083515 | 63 | 44 | 4.3 | 12.2 | 0.00 | 0.44 | 0.44 | 83 | 1015.9 |
| 20260505083018 | 62 | 99 | 4.3 | 8.7 | 0.00 | 0.44 | 0.44 | 82 | 1015.8 |
| 20260505082507 | 62 | 72 | 3.5 | 8.7 | 0.00 | 0.44 | 0.44 | 83 | 1015.9 |
| 20260505082007 | 61 | 138 | 3.5 | 7.8 | 0.00 | 0.44 | 0.44 | 84 | 1015.9 |
| 20260505081517 | 61 | 91 | 3.5 | 6.1 | 0.00 | 0.44 | 0.44 | 84 | 1016.0 |
| 20260505081012 | 61 | 60 | 2.6 | 6.1 | 0.00 | 0.44 | 0.44 | 84 | 1016.0 |
| 20260505080509 | 61 | 150 | 1.7 | 8.7 | 0.00 | 0.44 | 0.44 | 84 | 1016.0 |
| 20260505080032 | 61 | 55 | 1.7 | 8.7 | 0.00 | 0.44 | 0.44 | 84 | 1015.9 |
| 20260505075508 | 60 | 103 | 2.6 | 8.7 | 0.00 | 0.44 | 0.44 | 85 | 1015.9 |
| 20260505075011 | 60 | 220 | 3.5 | 8.7 | 0.00 | 0.44 | 0.44 | 84 | 1015.8 |
| 20260505074521 | 60 | 345 | 2.6 | 7.0 | 0.00 | 0.44 | 0.44 | 85 | 1016.0 |
| 20260505074009 | 60 | 166 | 2.6 | 9.6 | 0.00 | 0.44 | 0.44 | 85 | 1016.1 |
| 20260505073507 | 60 | 98 | 3.5 | 9.6 | 0.00 | 0.44 | 0.44 | 86 | 1016.0 |
| 20260505073036 | 59 | 88 | 1.7 | 11.3 | 0.00 | 0.44 | 0.44 | 87 | 1016.1 |
| 20260505072506 | 59 | 229 | 2.6 | 11.3 | 0.00 | 0.44 | 0.44 | 86 | 1016.1 |
| 20260505072010 | 59 | 105 | 1.7 | 8.7 | 0.00 | 0.44 | 0.44 | 87 | 1016.0 |
| 20260505071510 | 59 | 105 | 4.3 | 9.6 | 0.00 | 0.44 | 0.44 | 87 | 1016.0 |
| 20260505071007 | 59 | 94 | 2.6 | 10.4 | 0.00 | 0.44 | 0.44 | 88 | 1016.0 |
| 20260505070508 | 59 | 108 | 3.5 | 10.4 | 0.00 | 0.44 | 0.44 | 89 | 1016.0 |
| 20260505070019 | 59 | 110 | 2.6 | 8.7 | 0.00 | 0.44 | 0.44 | 89 | 1016.0 |
| 20260505065508 | 59 | 98 | 1.7 | 8.7 | 0.00 | 0.44 | 0.44 | 90 | 1016.1 |
| 20260505065007 | 59 | 165 | 3.5 | 8.7 | 0.00 | 0.44 | 0.44 | 90 | 1015.9 |
| 20260505064521 | 59 | 195 | 1.7 | 7.0 | 0.00 | 0.44 | 0.44 | 91 | 1016.0 |
| 20260505064008 | 59 | 91 | 1.7 | 7.0 | 0.00 | 0.44 | 0.44 | 92 | 1016.1 |
| 20260505063509 | 58 | 84 | 1.7 | 5.2 | 0.00 | 0.44 | 0.44 | 92 | 1016.1 |
| 20260505063032 | 58 | 46 | 1.7 | 5.2 | 0.00 | 0.44 | 0.44 | 92 | 1016.2 |
| 20260505062512 | 58 | 172 | 1.7 | 4.3 | 0.00 | 0.44 | 0.44 | 92 | 1016.0 |
| 20260505062011 | 58 | 79 | 0.9 | 6.1 | 0.00 | 0.44 | 0.44 | 93 | 1016.0 |
| 20260505061528 | 58 | 117 | 1.7 | 6.1 | 0.00 | 0.44 | 0.44 | 92 | 1016.0 |
| 20260505061008 | 58 | 121 | 0.9 | 6.1 | 0.00 | 0.44 | 0.44 | 93 | 1015.9 |
| 20260505060510 | 58 | 116 | 1.7 | 6.1 | 0.00 | 0.44 | 0.44 | 93 | 1016.0 |
| 20260505060015 | 58 | 82 | 0.9 | 6.1 | 0.00 | 0.44 | 0.44 | 93 | 1015.9 |
| 20260505055508 | 58 | 102 | 0.9 | 7.0 | 0.00 | 0.44 | 0.44 | 93 | 1015.9 |
| 20260505055011 | 58 | 87 | 1.7 | 7.0 | 0.00 | 0.44 | 0.44 | 93 | 1015.8 |
| 20260505054522 | 57 | 122 | 1.7 | 7.0 | 0.00 | 0.44 | 0.44 | 93 | 1015.8 |
| 20260505054015 | 57 | 139 | 1.7 | 7.0 | 0.00 | 0.44 | 0.44 | 93 | 1015.8 |
| 20260505053512 | 57 | 163 | 0.9 | 4.3 | 0.00 | 0.44 | 0.44 | 93 | 1015.8 |
| 20260505053024 | 57 | 117 | 1.7 | 4.3 | 0.01 | 0.44 | 0.44 | 93 | 1015.8 |
| 20260505052508 | 57 | 125 | 0.9 | 4.3 | 0.03 | 0.44 | 0.44 | 93 | 1015.7 |
| 20260505052007 | 57 | 79 | 0.9 | 5.2 | 0.04 | 0.44 | 0.44 | 93 | 1015.7 |
| 20260505051525 | 57 | 146 | 0.9 | 7.0 | 0.05 | 0.44 | 0.44 | 93 | 1015.7 |
| 20260505051007 | 57 | 158 | 1.7 | 7.0 | 0.05 | 0.44 | 0.44 | 93 | 1015.8 |
| 20260505050510 | 57 | 83 | 1.7 | 6.1 | 0.05 | 0.44 | 0.44 | 93 | 1015.8 |
| 20260505041522 | 57 | 153 | 0.9 | 3.5 | 0.02 | 0.39 | 0.38 | 93 | 1015.7 |
| 20260505041007 | 57 | 96 | 0.0 | 3.5 | 0.03 | 0.39 | 0.38 | 93 | 1015.7 |
| 20260505040512 | 57 | 126 | 0.9 | 3.5 | 0.03 | 0.39 | 0.38 | 93 | 1015.7 |
| 20260505040027 | 57 | 95 | 0.9 | 3.5 | 0.03 | 0.39 | 0.38 | 93 | 1015.5 |
| 20260505035509 | 57 | 155 | 0.9 | 5.2 | 0.02 | 0.38 | 0.37 | 93 | 1015.6 |
| 20260505035010 | 57 | 90 | 0.9 | 5.2 | 0.02 | 0.37 | 0.37 | 93 | 1015.6 |
| 20260505034526 | 57 | 116 | 1.7 | 4.3 | 0.02 | 0.37 | 0.37 | 93 | 1015.7 |
| 20260505034013 | 57 | 87 | 0.9 | 6.1 | 0.03 | 0.37 | 0.37 | 93 | 1015.7 |
| 20260505033509 | 57 | 158 | 1.7 | 6.1 | 0.04 | 0.37 | 0.37 | 93 | 1015.7 |
| 20260505033018 | 57 | 134 | 1.7 | 6.1 | 0.06 | 0.37 | 0.37 | 93 | 1015.7 |
| 20260505032510 | 57 | 118 | 1.7 | 6.1 | 0.06 | 0.37 | 0.36 | 93 | 1015.6 |
| 20260505032011 | 57 | 148 | 1.7 | 8.7 | 0.07 | 0.37 | 0.36 | 93 | 1015.8 |
| 20260505031503 | 57 | 108 | 3.5 | 8.7 | 0.11 | 0.37 | 0.36 | 92 | 1015.8 |
| 20260505031002 | 57 | 44 | 1.7 | 5.2 | 0.12 | 0.36 | 0.35 | 92 | 1015.9 |
| 20260505030502 | 57 | 149 | 1.7 | 7.0 | 0.15 | 0.36 | 0.35 | 93 | 1016.0 |
| 20260505030007 | 57 | 89 | 2.6 | 7.0 | 0.18 | 0.36 | 0.35 | 93 | 1016.0 |
| 20260505025505 | 57 | 110 | 1.7 | 5.2 | 0.18 | 0.36 | 0.35 | 93 | 1016.1 |
| 20260505025006 | 57 | 125 | 1.7 | 3.5 | 0.20 | 0.35 | 0.34 | 93 | 1016.2 |
| 20260505024508 | 57 | 124 | 1.7 | 3.5 | 0.21 | 0.35 | 0.34 | 92 | 1016.3 |
| 20260505024005 | 57 | 109 | 1.7 | 3.5 | 0.21 | 0.34 | 0.33 | 92 | 1016.3 |
| 20260505023505 | 57 | 74 | 0.0 | 6.1 | 0.19 | 0.32 | 0.31 | 92 | 1016.3 |
| 20260505023017 | 57 | 92 | 0.9 | 6.1 | 0.20 | 0.31 | 0.30 | 92 | 1016.4 |
| 20260505022505 | 57 | 72 | 0.9 | 3.5 | 0.21 | 0.30 | 0.29 | 92 | 1016.4 |
| 20260505022010 | 58 | 119 | 0.9 | 2.6 | 0.20 | 0.29 | 0.28 | 92 | 1016.5 |
| 20260505021517 | 58 | 91 | 0.9 | 2.6 | 0.17 | 0.25 | 0.25 | 92 | 1016.5 |
| 20260505021010 | 58 | 100 | 0.9 | 2.6 | 0.15 | 0.23 | 0.22 | 92 | 1016.4 |
| 20260505020509 | 58 | 108 | 0.0 | 3.5 | 0.12 | 0.20 | 0.19 | 92 | 1016.5 |
| 20260505020004 | 58 | 110 | 0.9 | 4.3 | 0.10 | 0.18 | 0.17 | 92 | 1016.6 |
| 20260505015503 | 58 | 126 | 0.9 | 5.2 | 0.09 | 0.17 | 0.16 | 92 | 1016.5 |
| 20260505015002 | 58 | 68 | 1.7 | 5.2 | 0.07 | 0.14 | 0.14 | 92 | 1016.5 |
| 20260505014511 | 58 | 103 | 0.9 | 5.2 | 0.06 | 0.14 | 0.13 | 92 | 1016.6 |
| 20260505014007 | 58 | 139 | 0.9 | 5.2 | 0.05 | 0.13 | 0.12 | 92 | 1016.6 |
| 20260505013505 | 58 | 87 | 0.9 | 4.3 | 0.04 | 0.12 | 0.11 | 92 | 1016.6 |
| 20260505013012 | 58 | 79 | 0.9 | 2.6 | 0.03 | 0.11 | 0.10 | 92 | 1016.7 |
| 20260505012505 | 58 | 101 | 0.9 | 2.6 | 0.01 | 0.09 | 0.08 | 92 | 1016.7 |
| 20260505012011 | 58 | 134 | 0.0 | 2.6 | 0.00 | 0.08 | 0.07 | 92 | 1016.8 |
| 20260505011518 | 58 | 87 | 1.7 | 2.6 | 0.00 | 0.08 | 0.07 | 92 | 1016.9 |
| 20260505011010 | 58 | 138 | 0.0 | 1.7 | 0.00 | 0.07 | 0.07 | 92 | 1017.0 |
| 20260505010506 | 58 | 105 | 0.9 | 1.7 | 0.00 | 0.07 | 0.07 | 92 | 1017.0 |
| 20260505010020 | 58 | 118 | 0.0 | 1.7 | 0.00 | 0.07 | 0.07 | 92 | 1017.0 |
| 20260505005510 | 58 | 88 | 0.0 | 1.7 | 0.00 | 0.07 | 0.07 | 92 | 1017.1 |
| 20260505005008 | 58 | 121 | 0.0 | 1.7 | 0.00 | 0.07 | 0.07 | 92 | 1017.1 |
| 20260505004507 | 58 | 111 | 0.0 | 1.7 | 0.00 | 0.07 | 0.07 | 92 | 1017.2 |
| 20260505004003 | 58 | 96 | 0.0 | 1.7 | 0.00 | 0.07 | 0.07 | 92 | 1017.3 |
| 20260505003505 | 58 | 129 | 0.0 | 1.7 | 0.00 | 0.07 | 0.07 | 92 | 1017.3 |
| 20260505003008 | 58 | 111 | 0.0 | 1.7 | 0.00 | 0.07 | 0.07 | 91 | 1017.4 |
| 20260505002506 | 58 | 94 | 0.0 | 1.7 | 0.01 | 0.07 | 0.07 | 91 | 1017.5 |
| 20260505002008 | 59 | 89 | 0.0 | 1.7 | 0.02 | 0.07 | 0.07 | 91 | 1017.5 |
| 20260505001513 | 58 | 91 | 0.0 | 1.7 | 0.03 | 0.07 | 0.07 | 91 | 1017.5 |
| 20260505001009 | 59 | 96 | 0.0 | 1.7 | 0.03 | 0.07 | 0.06 | 91 | 1017.5 |
| 20260505000506 | 58 | 121 | 0.0 | 1.7 | 0.05 | 0.07 | 0.06 | 91 | 1017.6 |
| 20260505000018 | 59 | 91 | 0.0 | 1.7 | 0.05 | 0.07 | 0.06 | 91 | 1017.6 |
| 20260504235506 | 59 | 129 | 0.0 | 1.7 | 0.06 | 0.07 | 0.06 | 91 | 1017.6 |
| 20260504235009 | 59 | 137 | 0.0 | 1.7 | 0.06 | 0.07 | 0.06 | 90 | 1017.7 |
| 20260504234522 | 59 | 100 | 0.0 | 1.7 | 0.06 | 0.07 | 0.06 | 90 | 1017.7 |
| 20260504234011 | 59 | 118 | 0.0 | 1.7 | 0.06 | 0.07 | 0.06 | 90 | 1017.8 |
| 20260504233509 | 59 | 117 | 0.0 | 1.7 | 0.06 | 0.07 | 0.06 | 90 | 1017.8 |
| 20260504233024 | 59 | 113 | 0.9 | 1.7 | 0.06 | 0.07 | 0.06 | 90 | 1017.8 |
| 20260504232505 | 59 | 108 | 0.9 | 2.6 | 0.05 | 0.06 | 0.05 | 89 | 1017.8 |
| 20260504232005 | 59 | 153 | 0.0 | 2.6 | 0.04 | 0.05 | 0.04 | 89 | 1017.8 |
| 20260504231507 | 59 | 84 | 0.9 | 2.6 | 0.03 | 0.03 | 0.03 | 89 | 1017.8 |
| 20260504231003 | 59 | 101 | 0.0 | 2.6 | 0.02 | 0.03 | 0.02 | 88 | 1018.0 |
| 20260504230509 | 59 | 149 | 0.9 | 3.5 | 0.00 | 0.01 | 0.00 | 88 | 1018.1 |
| 20260504230018 | 59 | 94 | 0.0 | 3.5 | 0.00 | 0.01 | 0.00 | 88 | 1018.0 |
| 20260504225507 | 59 | 154 | 0.9 | 4.3 | 0.00 | 0.00 | 0.00 | 88 | 1018.0 |
| 20260504225005 | 59 | 146 | 0.9 | 4.3 | 0.00 | 0.00 | 0.00 | 88 | 1018.0 |
| 20260504224519 | 59 | 89 | 0.9 | 4.3 | 0.00 | 0.00 | 0.00 | 88 | 1018.1 |
| 20260504224008 | 59 | 86 | 0.9 | 2.6 | 0.00 | 0.00 | 0.00 | 88 | 1018.2 |
| 20260504223508 | 59 | 105 | 0.9 | 1.7 | 0.00 | 0.00 | 0.00 | 88 | 1018.3 |
| 20260504223024 | 59 | 108 | 0.0 | 2.6 | 0.00 | 0.00 | 0.00 | 88 | 1018.4 |
| 20260504222515 | 59 | 104 | 0.9 | 2.6 | 0.00 | 0.00 | 0.00 | 88 | 1018.5 |
| 20260504222010 | 59 | 71 | 0.9 | 1.7 | 0.00 | 0.00 | 0.00 | 88 | 1018.6 |
| 20260504221526 | 59 | 102 | 0.0 | 2.6 | 0.00 | 0.00 | 0.00 | 88 | 1018.7 |
| 20260504221005 | 59 | 113 | 0.9 | 2.6 | 0.00 | 0.00 | 0.00 | 88 | 1018.6 |
| 20260504220503 | 59 | 98 | 0.9 | 1.7 | 0.00 | 0.00 | 0.00 | 89 | 1018.6 |
| 20260504220010 | 59 | 122 | 0.0 | 2.6 | 0.00 | 0.00 | 0.00 | 89 | 1018.7 |
| 20260504215507 | 59 | 129 | 0.0 | 2.6 | 0.00 | 0.00 | 0.00 | 89 | 1018.6 |
| 20260504215007 | 60 | 113 | 0.9 | 2.6 | 0.00 | 0.00 | 0.00 | 89 | 1018.7 |
| 20260504214517 | 60 | 112 | 0.0 | 2.6 | 0.00 | 0.00 | 0.00 | 89 | 1018.8 |
| 20260504214006 | 60 | 124 | 0.0 | 2.6 | 0.00 | 0.00 | 0.00 | 89 | 1018.8 |
| 20260504213507 | 60 | 103 | 0.9 | 2.6 | 0.00 | 0.00 | 0.00 | 89 | 1018.8 |
| 20260504213026 | 60 | 113 | 0.9 | 3.5 | 0.00 | 0.00 | 0.00 | 90 | 1018.8 |